{"data":{"norad_id":64284,"intl_designator":"2025-121B","name":"HULIANWANG DIGUI-31","alt_names":[],"object_type":"PAYLOAD","status":"ACTIVE","operator":null,"country":"PRC","launch_date":"2025-06-05","launch_site_code":"TAISC","launch_vehicle":null,"mission":null,"orbit_class":"UNKNOWN","rcs_meters":null,"size_class":null,"mass_kg":null,"dimensions":null,"purposes":[],"wikipedia_slug":null,"has_3d_model":false,"image_url":null,"decayed_at":null,"tle_current":{"epoch":"2026-09-21T22:30:29.079648Z","epoch_age_seconds":64338,"freshness":"FRESH","line1":"1 64284U 25121B   26264.93783657  .00000043  00000+0  65046-4 0  9994","line2":"2 64284  86.5063 341.0247 0001679 108.4154 251.7162 13.24412180 62964","mean_motion":13.2441218,"eccentricity":0.0001679,"inclination_deg":86.5063,"raan_deg":341.0247,"arg_perigee_deg":108.4154,"mean_anomaly_deg":251.7162,"bstar":6.5046e-5,"rev_number":6296,"period_min":108.72748089647,"perigee_km":1166.6469230686,"apogee_km":1169.1808869625,"semimajor_km":7546.0509050155,"source":"CELESTRAK","updated_at":"2026-09-22T09:00:29.675513Z"}}}